This demonstration page uses our WeatherBlox Daily Observations layout. Learn more.

Hourly Observations for January 9, 2016

Temp ( °F °C ) Dew Point ( °F °C ) Humidity (%) Winds ( mph kmh ) Pressure ( in mb ) Visibility ( mi km ) Precip ( " mm )
12:15 am 00:15 Mostly Cloudy 21 -6 19 -7 93 93 NNW 6 9 30.18 1022 7 11.265408 0 0
12:35 am 00:35 Mostly Cloudy with Scattered Snow Showers 21 -6 18 -8 86 86 NW 3 6 30.18 1022 7 11.265408 0 0
12:55 am 00:55 Mostly Cloudy with Scattered Snow Showers 19 -7 18 -8 93 93 NNW 5 7 30.21 1023 7 11.265408 0 0
1:15 am 01:15 Mostly Cloudy with Scattered Snow Showers 19 -7 18 -8 93 93 NNW 6 9 30.21 1023 7 11.265408 0 0
1:35 am 01:35 Cloudy with Light Snow 21 -6 19 -7 93 93 NNW 12 19 30.18 1022 4 6.437376 0 0
1:55 am 01:55 Cloudy with Light Snow 21 -6 19 -7 93 93 N 9 15 30.18 1022 5 8.04672 0 0
2:15 am 02:15 Cloudy with Light Snow 21 -6 18 -8 86 86 NNW 7 11 30.18 1022 7 11.265408 0 0
2:35 am 02:35 Cloudy 21 -6 18 -8 86 86 NNW 10 17 30.18 1022 10 16.09344 0 0
2:55 am 02:55 Cloudy with Light Snow 21 -6 18 -8 86 86 NNW 13 20 30.18 1022 7 11.265408 0 0
3:15 am 03:15 Cloudy with Light Snow 21 -6 18 -8 86 86 NNW 10 17 30.18 1022 7 11.265408 0 0
3:35 am 03:35 Cloudy with Light Snow 21 -6 18 -8 86 86 NNW 10 17 30.18 1022 7 11.265408 0 0
3:55 am 03:55 Cloudy with Light Snow 21 -6 19 -7 93 93 NNW 10 17 30.18 1022 7 11.265408 0 0
4:15 am 04:15 Cloudy with Light Snow 21 -6 19 -7 93 93 N 15 24 30.18 1022 7 11.265408 0 0
4:35 am 04:35 Cloudy 21 -6 18 -8 86 86 N 15 24 30.18 1022 7 11.265408 0 0
4:55 am 04:55 Cloudy 21 -6 18 -8 86 86 N 15 24 30.18 1022 7 11.265408 0 0
5:15 am 05:15 Cloudy 21 -6 18 -8 86 86 N 18 30 30.18 1022 10 16.09344 0 0
5:35 am 05:35 Cloudy 19 -7 16 -9 86 86 N 20 31 30.24 1024 7 11.265408 0 0
5:55 am 05:55 Cloudy 19 -7 16 -9 86 86 N 17 28 30.24 1024 10 16.09344 0 0
6:15 am 06:15 Cloudy 19 -7 16 -9 86 86 N 12 19 30.27 1025 10 16.09344 0 0
6:35 am 06:35 Cloudy 19 -7 16 -9 86 86 N 14 22 30.27 1025 10 16.09344 0 0
6:55 am 06:55 Cloudy 19 -7 16 -9 86 86 N 12 19 30.3 1026 10 16.09344 0 0
7:15 am 07:15 Cloudy 19 -7 16 -9 86 86 N 9 15 30.3 1026 10 16.09344 0 0
7:35 am 07:35 Cloudy with Light Snow 19 -7 16 -9 86 86 NNW 10 17 30.3 1026 10 16.09344 0 0
7:55 am 07:55 Cloudy 19 -7 14 -10 79 79 NNW 12 19 30.3 1026 10 16.09344 0 0
8:15 am 08:15 Cloudy 18 -8 14 -10 86 86 NNW 13 20 30.3 1026 10 16.09344 0 0
8:35 am 08:35 Cloudy with Light Snow 18 -8 12 -11 79 79 N 10 17 30.3 1026 7 11.265408 0 0
8:55 am 08:55 Cloudy 18 -8 12 -11 79 79 N 14 22 30.3 1026 10 16.09344 0 0
9:15 am 09:15 Cloudy 16 -9 12 -11 86 86 N 9 15 30.33 1027 10 16.09344 0 0
9:35 am 09:35 Mostly Cloudy 16 -9 10 -12 79 79 NNW 10 17 30.33 1027 10 16.09344 0 0
9:55 am 09:55 Partly Cloudy 16 -9 10 -12 79 79 NNW 15 24 30.33 1027 10 16.09344 0 0
10:15 am 10:15 Sunny 16 -9 9 -13 73 73 N 14 22 30.33 1027 10 16.09344 0 0
10:35 am 10:35 Sunny 16 -9 9 -13 73 73 N 17 28 30.33 1027 10 16.09344 0 0
10:55 am 10:55 Sunny 16 -9 9 -13 73 73 NNW 15 24 30.33 1027 10 16.09344 0 0
11:15 am 11:15 Sunny 16 -9 9 -13 73 73 NNW 16 26 30.33 1027 10 16.09344 0 0
11:35 am 11:35 Sunny 16 -9 9 -13 73 73 NNW 18 30 30.33 1027 10 16.09344 0 0
11:55 am 11:55 Sunny 16 -9 9 -13 73 73 NNW 16 26 30.33 1027 10 16.09344 0 0
12:15 pm 12:15 Sunny 16 -9 9 -13 73 73 N 18 30 30.33 1027 10 16.09344 0 0
12:35 pm 12:35 Sunny 16 -9 7 -14 67 67 NNW 17 28 30.33 1027 10 16.09344 0 0
12:55 pm 12:55 Sunny 16 -9 7 -14 67 67 N 20 31 30.33 1027 10 16.09344 0 0
1:15 pm 13:15 Sunny 16 -9 7 -14 67 67 N 21 33 30.33 1027 10 16.09344 0 0
1:35 pm 13:35 Sunny 16 -9 7 -14 67 67 N 17 28 30.33 1027 10 16.09344 0 0
1:55 pm 13:55 Sunny 16 -9 7 -14 67 67 N 18 30 30.33 1027 10 16.09344 0 0
2:15 pm 14:15 Sunny 18 -8 9 -13 68 68 NNW 13 20 30.3 1026 10 16.09344 0 0
2:35 pm 14:35 Sunny 18 -8 9 -13 68 68 NNW 13 20 30.3 1026 10 16.09344 0 0
2:55 pm 14:55 Sunny 18 -8 9 -13 68 68 NNW 15 24 30.3 1026 10 16.09344 0 0
3:15 pm 15:15 Sunny 16 -9 9 -13 73 73 N 13 20 30.33 1027 10 16.09344 0 0
3:35 pm 15:35 Sunny 16 -9 9 -13 73 73 N 9 15 30.33 1027 10 16.09344 0 0
3:55 pm 15:55 Sunny 16 -9 9 -13 73 73 N 13 20 30.33 1027 10 16.09344 0 0
4:15 pm 16:15 Sunny 16 -9 7 -14 67 67 N 14 22 30.33 1027 10 16.09344 0 0
4:35 pm 16:35 Sunny 16 -9 7 -14 67 67 N 13 20 30.33 1027 10 16.09344 0 0
4:55 pm 16:55 Sunny 14 -10 7 -14 73 73 N 10 17 30.33 1027 10 16.09344 0 0
5:15 pm 17:15 Sunny 12 -11 7 -14 79 79 N 9 15 30.33 1027 10 16.09344 0 0
5:35 pm 17:35 Clear 12 -11 5 -15 73 73 N 12 19 30.39 1029 10 16.09344 0 0
5:55 pm 17:55 Clear 10 -12 5 -15 79 79 N 10 17 30.39 1029 10 16.09344 0 0
6:15 pm 18:15 Clear 10 -12 5 -15 79 79 N 9 15 30.39 1029 10 16.09344 0 0
6:35 pm 18:35 Clear 9 -13 3 -16 78 78 N 7 11 30.39 1029 10 16.09344 0 0
6:55 pm 18:55 Clear 9 -13 3 -16 78 78 N 7 11 30.39 1029 10 16.09344 0 0
7:15 pm 19:15 Clear 7 -14 3 -16 85 85 N 7 11 30.42 1030 10 16.09344 0 0
7:35 pm 19:35 Clear 7 -14 1 -17 78 78 N 7 11 30.42 1030 10 16.09344 0 0
7:55 pm 19:55 Clear 5 -15 1 -17 85 85 N 7 11 30.42 1030 10 16.09344 0 0
8:15 pm 20:15 Clear 5 -15 1 -17 85 85 N 6 9 30.45 1031 10 16.09344 0 0
8:35 pm 20:35 Clear 3 -16 -2 -19 78 78 Calm 30.45 1031 10 16.09344 0 0
8:55 pm 20:55 Clear 1 -17 -2 -19 85 85 NNW 3 6 30.48 1032 10 16.09344 0 0
9:15 pm 21:15 Clear 0 -18 -4 -20 84 84 Calm 30.48 1032 10 16.09344 0 0
9:35 pm 21:35 Clear 0 -18 -4 -20 84 84 Calm 30.48 1032 10 16.09344 0 0
9:55 pm 21:55 Clear 0 -18 -2 -19 92 92 N 3 6 30.48 1032 10 16.09344 0 0
10:15 pm 22:15 Clear 0 -18 -4 -20 84 84 NNE 5 7 30.48 1032 10 16.09344 0 0
10:35 pm 22:35 Clear -2 -19 -6 -21 84 84 NNE 6 9 30.5 1033 10 16.09344 0 0
10:55 pm 22:55 Clear -2 -19 -6 -21 84 84 NE 6 9 30.5 1033 10 16.09344 0 0
11:15 pm 23:15 Clear 0 -18 -4 -20 84 84 NNE 7 11 30.48 1032 10 16.09344 0 0
11:35 pm 23:35 Clear 0 -18 -4 -20 84 84 N 5 7 30.5 1033 10 16.09344 0 0
11:55 pm 23:55 Clear -2 -19 -6 -21 84 84 N 5 7 30.53 1034 10 16.09344 0 0

Powered by AerisWeather